Regional Weather Roundup
Issued by NWS

Home | Current Version | Previous Version | Text Only | Print | Product List | Glossary On
Versions: 1 2 3 4 5 6 7 8 9 10 11 12 13 14 15 16 17 18 19 20 21 22 23 24 25 26 27 28 29 30 31 32 33 34 35 36 37 38 39 40 41 42 43 44 45 46 47 48 49 50
000
ASUS44 KJAN 200710
RWRMS

MISSISSIPPI HOURLY WEATHER ROUNDUP
NATIONAL WEATHER SERVICE JACKSON MS
200 AM CDT SUN APR 20 2014

NOTE: "FAIR: INDICATES FEW OR NO CLOUDS BELOW 12,000 FEET WITH NO
SIGNIFICANT WEATHER AND/OR OBSTRUCTIONS TO VISIBILITY.

MSZ001>002-007>008-010>013-018>021-025>028-034>036-200800-
NORTHWEST MISSISSIPPI

CITY           SKY/WX    TMP DP  RH WIND       PRES   REMARKS
CLARKSDALE       N/A     55  50  82 CALM      30.15S
CLEVELAND      FAIR      57  53  84 CALM      30.13S
GREENWOOD      CLEAR     53  50  89 CALM      30.13S
GREENVILLE     CLEAR     57  51  80 CALM      30.12F
GRENADA        FAIR      48  46  93 CALM      30.13F
OLIVE BRANCH   CLEAR     55  46  71 CALM      30.15S
OXFORD         FAIR      50  45  81 CALM      30.15F
TUNICA         SUNNY     54  50  87 CALM      30.14F
$$

MSZ003>006-009-014>017-022>024-029>033-037>039-200800-
NORTHEAST MISSISSIPPI

CITY           SKY/WX    TMP DP  RH WIND       PRES   REMARKS
BELMONT        FAIR      48  47  95 CALM      30.16S
COLUMBUS AFB   CLEAR     50  48  95 NW1       30.14S
CORINTH        FAIR      48  45  87 CALM      30.15F
GOLDN TRIANGLE CLEAR     54  45  71 CALM      30.17S
STARKVILLE     FAIR      48  46  93 CALM      30.14F
TUPELO         CLEAR     52  47  83 CALM      30.15F
$$

MSZ040-058-200800-
CENTRAL MISSISSIPPI

CITY           SKY/WX    TMP DP  RH WIND       PRES   REMARKS
JACKSON INTL   CLEAR     53  51  93 CALM      30.12F
JACKSON HAWKNS CLEAR     56  51  84 CALM      30.12F
MERIDIAN KEY   CLEAR     50  48  93 CALM      30.13F
MERIDIAN NAS   CLEAR     51  48  89 CALM      30.14F
RAYMOND        HAZE      52  46  82 CALM      30.12F VSB 1/4
VICKSBURG      MOCLDY    59  57  93 CALM      30.13S
$$

MSZ059>079-200800-
SOUTH MISSISSIPPI

CITY           SKY/WX    TMP DP  RH WIND       PRES   REMARKS
BROOKHAVEN     FAIR      54  52  94 CALM      30.14F
COLUMBIA       FAIR      50  50 100 MISG      30.10F
HATTIESBURG    CLEAR     53  51  93 CALM      30.12F
MCCOMB         CLEAR     56  51  84 CALM      30.12S
NATCHEZ        PTCLDY    54  50  87 CALM      30.13F
PINE BELT      CLEAR     54  50  87 CALM      30.12S
$$

MSZ080>082-200800-
COASTAL MISSISSIPPI

CITY           SKY/WX    TMP DP  RH WIND       PRES   REMARKS
BILOXI         CLEAR     58  53  81 NE5       30.09F
PASCAGOULA     CLEAR     58  53  84 E5        30.11S
GULFPORT       CLEAR     60  53  77 CALM      30.09S
$$



USA.gov is the U.S. government's official web portal to all federal, state and local government web resources and services.